Weather History for Yuma MCAS, AZ

Change the Weather History Date:

Thursday, June 19, 2014

  Actual Average Record
Temperature  
Mean Temperature 88 °F 90 °F  
Max Temperature 104 °F 105 °F 115 °F (1960)
Min Temperature 71 °F 76 °F 60 °F (1923)
Degree Days  
Heating Degree Days 0 0  
Month to date heating degree days 0 0  
Since 1 June heating degree days 0 0  
Since 1 July heating degree days 370 686  
Cooling Degree Days 23 25  
Month to date cooling degree days 491 430  
Year to date cooling degree days 1653 1342  
Since 1 June cooling degree days 491 430  
Growing Degree Days 36 (Base 50)    
Moisture  
Dew Point 37 °F    
Average Humidity 21    
Maximum Humidity 34    
Minimum Humidity 7    
Precipitation  
Precipitation 0.00 in 0.00 in 0.01 in (1967)
Month to date precipitation 0.00 0.01  
Year to date precipitation 0.07 1.33  
Sea Level Pressure  
Sea Level Pressure 29.79 in    
Wind  
Wind Speed 5 mph (WSW)    
Max Wind Speed 13 mph    
Max Gust Speed 20 mph    
Visibility 10 miles    
Events      
T = Trace of Precipitation, MM = Missing Value Source: NWS Daily Summary

Daily Weather History Graph

Daily Weather History Graph

Search for Another Location

Airport:

Trip Planner

Search our weather history database for the weather conditions in past years. The results will help you decide how hot, cold, wet, or windy it might be!

Date:

Astronomy

Jun. 19, 2014 Rise Set
Actual Time 5:30 AM MST 7:48 PM MST
Civil Twilight 5:02 AM MST 8:17 PM MST
Nautical Twilight 4:27 AM MST 8:52 PM MST
Astronomical Twilight 3:49 AM MST 9:30 PM MST
Moon 12:15 AM MST (6/19) 12:42 PM MST (6/19)
Length of Visible Light 15h 15m
Length of Day
14h 18m
Waning Gibbous, 50% of the Moon is Illuminated
Jun 19
Waning Gibbous
Jun 27
New
Jul 5
First Quarter
Jul 12
Full
Jul 18
Last Quarter

Hourly Weather History & Observations

Time (MST) Temp. Dew Point Humidity Pressure Visibility Wind Dir Wind Speed Gust Speed Precip Events Conditions
12:57 AM 81.0 °F 36.0 °F 20% 29.76 in 10.0 mi Calm Calm - N/A   Clear
1:57 AM 79.0 °F 36.0 °F 21% 29.76 in 10.0 mi SSW 4.6 mph - N/A   Clear
2:57 AM 78.1 °F 39.0 °F 25% 29.76 in 10.0 mi SSE 3.5 mph - N/A   Clear
3:57 AM 73.9 °F 41.0 °F 30% 29.76 in 10.0 mi South 4.6 mph - N/A   Clear
4:57 AM 73.9 °F 39.9 °F 29% 29.78 in 10.0 mi South 3.5 mph - N/A   Clear
5:57 AM 71.1 °F 41.0 °F 34% 29.80 in 10.0 mi Calm Calm - N/A   Clear
6:57 AM 75.9 °F 37.9 °F 25% 29.82 in 10.0 mi SSW 3.5 mph - N/A   Clear
7:57 AM 81.0 °F 39.0 °F 22% 29.83 in 10.0 mi Variable 3.5 mph - N/A   Clear
8:57 AM 88.0 °F 41.0 °F 19% 29.85 in 10.0 mi NNE 3.5 mph - N/A   Clear
9:57 AM 93.0 °F 39.0 °F 15% 29.85 in 10.0 mi NNE 3.5 mph - N/A   Clear
10:57 AM 97.0 °F 35.1 °F 11% 29.85 in 10.0 mi ENE 5.8 mph - N/A   Clear
11:57 AM 98.1 °F 30.9 °F 9% 29.84 in 10.0 mi Variable 3.5 mph - N/A   Clear
12:57 PM 100.9 °F 26.1 °F 7% 29.83 in 10.0 mi Variable 6.9 mph - N/A   Clear
1:57 PM 102.0 °F 26.1 °F 7% 29.82 in 10.0 mi WSW 8.1 mph - N/A   Smoke
2:57 PM 102.2 °F 28.4 °F 7% 29.80 in 10.0 mi WSW 5.8 mph 17.3 mph N/A   Smoke
3:57 PM 102.2 °F 28.4 °F 7% 29.78 in 10.0 mi South 8.1 mph - N/A   Smoke
4:57 PM 102.0 °F 27.0 °F 7% 29.77 in 10.0 mi SW 8.1 mph - N/A   Clear
5:57 PM 102.0 °F 30.9 °F 8% 29.76 in 10.0 mi West 8.1 mph - N/A   Clear
6:57 PM 100.0 °F 33.1 °F 10% 29.76 in 10.0 mi West 5.8 mph - N/A   Clear
7:57 PM 96.1 °F 37.0 °F 13% 29.77 in 10.0 mi West 6.9 mph - N/A   Clear
8:57 PM 93.0 °F 46.0 °F 20% 29.78 in 10.0 mi WSW 6.9 mph - N/A   Clear
9:57 PM 89.1 °F 46.9 °F 23% 29.78 in 10.0 mi West 6.9 mph - N/A   Clear
10:57 PM 84.9 °F 48.0 °F 28% 29.78 in 10.0 mi NNW 3.5 mph - N/A   Clear
11:57 PM 84.9 °F 48.0 °F 28% 29.78 in 10.0 mi North 3.5 mph - N/A   Clear